Vertical_Velocity
-1 -1 -0 -0 0 0 0 -0 -1 -1 1 0 1 -0 0 0 1 -0 1 0 -1 2 1 2 1 -0 -0 -0 1 0 -1 -2 1 -0 0 -1 -3 -4 -2 -2 2 2 0 -4 -3
-1 -1 -1 -0 -0 -0 0 1 0 1 -0 1 1 0 0 1 0 0 2 -0 0 1 1 1 -1 -1 -1 -1 0 2 -4 -1 -2 -2 1 -1 0 3 2 2 -5 2 1 -0 -1
-2 -1 -1 -1 -1 -1 -1 0 -0 -1 -1 1 0 0 0 1 -0 0 0 -1 -0 -2 0 -0 -2 -1 -1 -1 1 -0 -3 1 -0 0 0 3 2 -0 -1 -1 -0 2 3 1 -1
-0 -1 -1 -1 -1 0 -1 -0 -1 -1 -0 0 0 0 1 1 -2 1 0 0 -2 -1 -1 -2 -0 -1 -3 -2 -3 -4 0 0 -1 -1 -1 1 2 -4 -1 2 -0 0 -2 1 2
-1 -1 -1 -1 -2 -1 -1 -1 -1 -1 -1 1 0 -0 1 1 -1 0 -1 0 -0 -1 -1 -1 -0 -0 -0 1 -1 -2 -2 -4 -2 -0 -1 0 0 3 -0 -0 -0 -3 -4 -5 -2
-2 -1 -1 -0 -1 -1 -1 -1 -1 -1 -1 1 -1 -0 1 1 -0 -1 -2 -1 -0 -1 -0 -1 1 -1 1 -2 -2 -2 -1 -3 -2 -2 3 2 2 4 -1 -3 -1 -5 -2 -2 -5
-1 -1 -1 -1 -1 -1 -1 -2 -1 -1 -1 1 1 -2 -0 0 0 0 -2 1 1 0 0 -0 -0 3 2 1 0 -3 -1 -0 -3 -5 -1 0 0 2 -1 2 -4 1 -5 -5 -3
0 -1 -1 -1 -0 -2 -2 -1 -1 -1 -1 -0 1 -2 0 1 -1 1 1 1 2 1 -0 -1 1 1 6 -1 -2 -1 -2 0 -2 -1 1 2 -4 1 -5 -6 -0 -1 -2 -5 1
-1 -1 -0 -0 -1 -1 -1 -3 -0 -0 -1 0 1 -1 1 -1 -1 -2 1 1 3 -0 -2 -0 3 -1 5 -1 -3 1 3 2 -2 -1 -1 2 4 1 -4 -1 -0 0 -2 -2 -2
-0 -1 -0 1 -1 -1 -2 -1 1 -1 -1 -1 -1 -2 1 0 3 -1 -3 2 3 1 -3 0 -2 1 3 0 -0 1 2 -0 -2 1 1 -4 -0 2 2 -3 -0 2 4 4 -6
-1 -1 -1 -0 -2 -1 -1 -2 -3 -1 1 -1 -1 1 2 2 1 1 -1 0 3 4 0 2 -3 1 3 -1 2 2 -2 -5 2 4 2 -1 -3 -2 -6 2 -2 2 6 4 2
-0 -1 -2 0 -2 -2 -2 -1 4 3 0 2 3 1 -1 1 0 3 4 4 5 0 0 1 4 2 2 -3 -0 3 -0 -2 -3 1 4 1 -2 -4 -2 -1 -7 7 7 6 -2
1 -1 -2 1 -2 -2 -1 7 3 0 -0 0 2 0 -1 0 -0 -0 3 2 3 -2 3 4 0 -1 1 -1 -0 0 -2 3 -1 2 -1 3 -4 -2 0 -1 -8 -0 1 -2 8
0 0 -1 -0 -0 -1 4 -1 1 -1 -2 2 2 1 2 -1 1 0 2 2 3 2 3 -1 0 5 5 5 2 2 2 -2 4 -2 2 5 -4 -4 -4 -6 -1 -10 4 -0 4
1 0 -2 0 -0 1 0 0 2 2 1 2 3 2 3 1 -1 -0 2 3 3 2 0 6 1 -8 -4 2 -1 0 2 0 -0 -0 -1 -2 8 -8 0 -8 -6 -12 -17 5 0
1 -1 -3 1 1 2 1 2 2 2 1 1 0 0 2 2 -0 5 2 1 -2 1 -1 -2 -3 2 4 -1 -2 -2 4 -0 -2 -1 -3 3 9 4 -1 1 -3 10 -25 4 -2
-1 0 -3 1 4 2 2 2 1 3 1 -0 0 0 0 1 1 3 4 3 6 -1 5 2 4 6 5 -1 -4 3 0 -2 -1 3 5 -1 3 4 6 1 3 4 16 3 -2
-1 0 -3 5 -0 2 2 2 4 5 -1 -1 -1 0 2 2 -1 2 3 -1 -0 -2 2 3 4 3 2 -1 -0 -4 -2 -1 2 3 -0 -1 1 -4 3 5 9 -8 -6 8 -6
-1 -1 1 5 -1 2 3 6 -1 0 0 5 5 -1 1 1 3 0 0 2 -2 1 3 0 -1 2 4 5 -4 1 1 -1 -1 1 3 -1 3 -5 1 1 3 -1 -1 -3 3
-1 -1 1 2 3 3 3 11 5 1 4 -0 4 -3 -2 1 -0 2 2 1 -4 1 4 7 -1 2 -0 -1 -0 -4 0 -5 -5 -2 -0 1 4 -1 0 8 6 4 -3 4 -1
-2 1 0 0 3 3 6 13 4 -3 1 -1 -0 -2 -0 -2 -0 0 3 1 -0 2 4 6 5 3 2 -4 -1 0 -2 -0 -1 -0 -5 -7 6 5 -11 4 3 4 3 -0 2
-2 -1 1 1 1 6 7 2 -10 6 1 3 -2 -0 -2 -1 -1 -2 -1 1 -0 -0 -2 10 3 -1 0 -2 0 -4 -5 -4 -2 -3 -4 -3 -0 3 1 -3 -3 0 -5 -8 1
-0 -2 3 2 1 -1 3 -6 7 4 1 2 -2 -1 -2 -3 -4 -4 -3 -2 -0 -1 -1 7 -0 -1 -3 -2 -1 0 -1 -5 -4 -2 -0 1 -0 0 -7 -7 -5 -6 -5 -3 1
-0 -1 4 2 1 -1 7 8 9 -2 -12 1 -0 -4 -2 -0 -1 -7 -1 -1 -1 -1 1 5 2 -1 -3 1 -1 -5 -5 -5 -7 -3 -4 3 -0 -2 0 -1 -3 4 5 1 -2
2 4 1 0 -0 -4 10 4 1 5 2 7 -7 3 -1 -1 1 -4 0 -0 -2 -3 1 -1 -1 2 -1 -2 -8 -3 0 1 -5 -1 -7 2 1 -1 8 5 -2 -0 3 2 -2
1 2 -2 -1 -5 -0 5 1 7 2 3 0 -2 -2 3 5 1 -2 -2 5 -1 1 -8 -1 4 6 5 1 -3 -5 -3 -1 1 1 -2 -0 -3 -4 1 5 2 -0 1 -0 -3
2 1 -2 1 -2 5 8 6 3 5 -2 5 1 -0 8 -0 5 2 1 7 4 -1 4 -6 3 7 1 -4 -11 -7 -0 -2 -0 2 -2 -3 -3 1 2 -4 5 1 -1 1 2
Height
5908 5909 5910 5911 5912 5912 5913 5913 5913 5913 5912 5912 5912 5911 5911 5911 5910 5911 5912 5912 5912 5914 5915 5917 5919 5919 5919 5920 5920 5920 5919 5916 5919 5918 5918 5915 5913 5911 5910 5909 5908 5906 5903 5900 5899
5907 5908 5910 5910 5911 5912 5912 5913 5913 5913 5912 5912 5912 5911 5911 5911 5911 5911 5912 5911 5912 5914 5915 5917 5917 5918 5919 5920 5921 5922 5917 5918 5919 5919 5919 5916 5915 5914 5913 5911 5908 5907 5904 5901 5899
5907 5908 5909 5910 5911 5911 5912 5912 5912 5912 5912 5912 5912 5911 5911 5911 5911 5911 5911 5911 5912 5913 5915 5916 5917 5918 5920 5921 5923 5921 5917 5920 5919 5920 5920 5919 5918 5915 5914 5912 5910 5908 5907 5904 5901
5906 5907 5908 5909 5910 5910 5911 5911 5911 5911 5911 5912 5911 5911 5911 5911 5912 5911 5911 5911 5912 5912 5914 5916 5917 5919 5920 5922 5921 5920 5921 5922 5921 5921 5921 5922 5920 5919 5916 5915 5912 5909 5906 5905 5904
5904 5905 5906 5907 5908 5909 5909 5910 5910 5910 5910 5910 5911 5911 5911 5911 5911 5911 5911 5912 5912 5913 5914 5916 5918 5920 5921 5923 5921 5921 5922 5921 5921 5922 5922 5922 5922 5919 5917 5914 5911 5907 5906 5904 5905
5901 5902 5904 5905 5906 5907 5907 5908 5908 5908 5909 5909 5909 5910 5910 5911 5910 5911 5911 5912 5912 5913 5914 5916 5918 5920 5921 5920 5920 5920 5923 5922 5921 5923 5924 5923 5921 5919 5916 5913 5912 5909 5908 5905 5905
5897 5898 5900 5901 5902 5903 5904 5905 5905 5906 5907 5907 5907 5908 5909 5910 5910 5910 5911 5911 5912 5914 5915 5917 5918 5920 5921 5920 5920 5921 5923 5923 5922 5923 5924 5924 5922 5920 5915 5913 5910 5911 5910 5910 5907
5892 5893 5895 5896 5898 5899 5900 5901 5902 5903 5904 5904 5905 5906 5907 5908 5908 5909 5910 5912 5913 5914 5915 5916 5918 5920 5921 5920 5921 5922 5924 5924 5924 5923 5925 5924 5923 5921 5915 5914 5914 5913 5912 5911 5910
5888 5889 5890 5892 5893 5894 5896 5897 5898 5899 5900 5901 5902 5903 5905 5905 5906 5907 5909 5910 5912 5913 5913 5915 5917 5918 5922 5922 5923 5924 5924 5924 5924 5924 5926 5925 5922 5920 5918 5917 5915 5915 5912 5912 5911
5883 5884 5885 5887 5888 5889 5891 5892 5893 5894 5895 5896 5898 5901 5902 5903 5904 5904 5906 5908 5910 5911 5912 5914 5915 5919 5923 5923 5924 5925 5925 5924 5923 5924 5926 5925 5923 5922 5920 5919 5917 5914 5913 5912 5912
5878 5879 5881 5882 5883 5885 5886 5887 5890 5890 5890 5892 5893 5896 5899 5900 5901 5903 5904 5905 5908 5910 5911 5913 5915 5919 5922 5922 5924 5925 5924 5923 5925 5926 5926 5924 5923 5923 5919 5918 5917 5915 5914 5912 5903
5873 5874 5876 5878 5879 5881 5882 5883 5885 5887 5887 5889 5891 5892 5894 5896 5898 5900 5903 5905 5906 5907 5909 5913 5916 5919 5921 5922 5923 5924 5924 5924 5925 5924 5925 5923 5923 5923 5919 5918 5916 5915 5916 5915 5909
5867 5869 5871 5873 5875 5877 5878 5881 5881 5882 5884 5886 5887 5888 5890 5893 5895 5897 5900 5901 5903 5905 5908 5911 5915 5917 5920 5921 5922 5922 5923 5924 5924 5924 5921 5922 5922 5922 5920 5918 5917 5915 5915 5916 5916
5861 5863 5865 5869 5872 5873 5875 5876 5877 5878 5880 5883 5885 5886 5888 5889 5892 5894 5897 5900 5902 5904 5906 5909 5912 5918 5919 5921 5921 5922 5922 5923 5923 5924 5924 5922 5919 5921 5920 5918 5916 5917 5915 5913 5914
5855 5858 5860 5863 5866 5869 5871 5872 5874 5876 5879 5882 5883 5884 5886 5888 5889 5892 5895 5897 5899 5901 5905 5910 5911 5912 5916 5919 5919 5921 5921 5921 5921 5922 5923 5922 5919 5919 5918 5915 5911 5910 5913 5913 5909
5849 5852 5855 5858 5861 5864 5866 5869 5872 5875 5876 5878 5880 5881 5884 5885 5887 5890 5892 5894 5896 5900 5903 5905 5908 5912 5915 5916 5916 5917 5919 5919 5919 5920 5920 5922 5921 5919 5914 5910 5905 5905 5906 5907 5908
5843 5846 5849 5853 5857 5858 5862 5866 5870 5871 5874 5875 5877 5879 5881 5884 5886 5888 5890 5894 5897 5900 5903 5906 5910 5914 5915 5915 5915 5917 5917 5918 5918 5919 5920 5918 5919 5916 5913 5905 5901 5899 5884 5902 5906
5837 5840 5843 5848 5851 5853 5858 5863 5867 5868 5868 5870 5872 5876 5879 5882 5883 5886 5889 5891 5894 5897 5902 5907 5911 5912 5913 5913 5914 5914 5915 5915 5914 5916 5917 5916 5915 5912 5910 5907 5903 5899 5901 5899 5904
5831 5834 5837 5842 5845 5849 5854 5859 5861 5863 5865 5869 5871 5872 5876 5879 5883 5885 5888 5891 5893 5897 5902 5905 5908 5910 5910 5911 5912 5913 5913 5913 5913 5913 5913 5914 5914 5908 5906 5905 5902 5901 5900 5899 5902
5826 5829 5832 5836 5840 5845 5850 5855 5857 5859 5862 5867 5869 5870 5872 5876 5879 5883 5886 5890 5891 5896 5900 5904 5906 5906 5907 5909 5910 5911 5912 5912 5911 5910 5909 5910 5911 5908 5900 5901 5899 5895 5898 5898 5899
5821 5824 5826 5830 5834 5840 5846 5851 5852 5856 5859 5864 5865 5866 5868 5872 5876 5880 5885 5887 5888 5893 5897 5900 5903 5906 5905 5905 5907 5909 5909 5909 5909 5908 5907 5907 5909 5906 5896 5894 5895 5894 5895 5895 5895
5816 5819 5821 5825 5830 5834 5841 5845 5848 5851 5855 5858 5861 5864 5865 5870 5873 5877 5880 5883 5886 5888 5892 5898 5899 5900 5902 5903 5904 5904 5905 5906 5906 5907 5905 5905 5907 5904 5900 5896 5897 5894 5893 5893 5894
5811 5814 5817 5821 5825 5830 5835 5839 5845 5848 5849 5854 5857 5860 5863 5868 5872 5874 5877 5880 5883 5886 5889 5894 5894 5896 5898 5901 5902 5902 5902 5903 5903 5903 5903 5904 5905 5902 5898 5897 5895 5895 5895 5894 5893
5808 5810 5814 5817 5821 5826 5832 5836 5840 5842 5845 5849 5854 5857 5861 5865 5868 5871 5874 5877 5881 5885 5887 5890 5891 5893 5895 5896 5897 5898 5898 5899 5900 5900 5900 5900 5899 5897 5896 5894 5893 5893 5894 5893 5891
5804 5807 5810 5813 5818 5822 5828 5831 5835 5838 5842 5845 5850 5854 5857 5861 5865 5869 5873 5875 5878 5882 5884 5886 5889 5891 5891 5892 5893 5893 5892 5892 5893 5894 5895 5894 5891 5889 5891 5890 5890 5888 5888 5888 5886
5801 5804 5806 5810 5814 5819 5824 5827 5831 5834 5840 5843 5847 5850 5854 5858 5862 5867 5869 5873 5876 5878 5881 5882 5884 5886 5887 5887 5887 5888 5887 5888 5889 5890 5889 5888 5887 5885 5887 5886 5886 5886 5883 5882 5881
5797 5800 5803 5807 5811 5815 5820 5824 5828 5831 5836 5840 5845 5848 5851 5854 5858 5863 5866 5868 5870 5873 5876 5877 5878 5879 5881 5882 5881 5883 5882 5882 5883 5884 5883 5883 5883 5883 5881 5880 5880 5879 5879 5877 5875